Location: Unspecified
(0.0000°N, 0.0000°E)
Time: 16:57:30
(UTC+00:00)

X-37B - Pass Details

Date: 17 January 2021
Orbit: 383 x 391 km, 45.1° (Epoch: 22 January)

Event Time Altitude Azimuth Distance (km) Brightness Sun altitude
Exits shadow 04:02:12 13° 123° (ESE) 1,238 4.0 -29.7°
Drops below altitude 10° 04:02:38 10° 125° (SE) 1,408 4.3 -29.6°
Sets 04:04:44 0° 130° (SE) 2,262 5.6 -29.1°
